• In Russia
  • List of Countries
  • For 7 days
  • Water Temperature
  • Satellite Maps
  • Weather Map
  • Weather Widgets
  • user-avatar
    Login

    Hourly Weather Kaprun

    Today, 18 December, Tuesday

    Time Temperature Precipitation Wind Pressure Humidity
    00:00 -9°C° 0.2 mm 2 mps 598 mmHg 93%
    01:00 -9°C° 0 mm 2 mps 598 mmHg 94%
    02:00 -10°C° 0.1 mm 2 mps 598 mmHg 93%
    03:00 -10°C° 0.1 mm 2 mps 598 mmHg 93%
    04:00 -12°C° 0.1 mm 2 mps 598 mmHg 92%
    05:00 -12°C° 0 mm 2 mps 598 mmHg 90%
    06:00 -11°C° 0 mm 1 mps 597 mmHg 89%
    07:00 -11°C° 0 mm 1 mps 597 mmHg 88%
    08:00 -10°C° 0 mm 1 mps 598 mmHg 84%
    09:00 -9°C° 0 mm 1 mps 598 mmHg 81%
    10:00 -8°C° 0 mm 1 mps 599 mmHg 78%
    11:00 -6°C° 0 mm 1 mps 599 mmHg 75%
    12:00 -4°C° 0 mm 1 mps 599 mmHg 73%
    13:00 -3°C° 0 mm 1 mps 599 mmHg 71%
    14:00 -4°C° 0 mm 1 mps 598 mmHg 74%
    15:00 -6°C° 0 mm 1 mps 598 mmHg 76%
    16:00 -7°C° 0 mm 1 mps 597 mmHg 79%
    17:00 -8°C° 0 mm 1 mps 597 mmHg 76%
    18:00 -9°C° 0 mm 1 mps 596 mmHg 73%
    19:00 -10°C° 0 mm 1 mps 596 mmHg 70%
    20:00 -12°C° 0 mm 2 mps 596 mmHg 67%
    21:00 -12°C° 0 mm 2 mps 596 mmHg 65%
    22:00 -10°C° 0 mm 2 mps 595 mmHg 62%
    23:00 -10°C° 0 mm 2 mps 595 mmHg 61%

    Tomorrow, 19 December, Wednesday

    Time Temperature Precipitation Wind Pressure Humidity
    00:00 -10°C° 0 mm 2 mps 595 mmHg 59%
    01:00 -10°C° 0 mm 2 mps 595 mmHg 58%
    02:00 -10°C° 0 mm 2 mps 595 mmHg 57%
    03:00 -10°C° 0 mm 2 mps 595 mmHg 57%
    04:00 -9°C° 0 mm 2 mps 594 mmHg 56%
    05:00 -9°C° 0 mm 2 mps 594 mmHg 56%
    06:00 -9°C° 0 mm 2 mps 595 mmHg 57%
    07:00 -9°C° 0 mm 2 mps 595 mmHg 57%
    08:00 -8°C° 0 mm 2 mps 595 mmHg 60%
    09:00 -7°C° 0 mm 2 mps 596 mmHg 62%
    10:00 -4°C° 0 mm 1 mps 596 mmHg 64%
    11:00 -3°C° 0 mm 1 mps 596 mmHg 67%
    12:00 -2°C° 0 mm 1 mps 596 mmHg 69%
    13:00 -2°C° 0 mm 1 mps 596 mmHg 71%
    14:00 -2°C° 0 mm 1 mps 595 mmHg 73%
    15:00 -3°C° 0 mm 1 mps 595 mmHg 75%
    16:00 -4°C° 0 mm 1 mps 594 mmHg 77%
    17:00 -6°C° 0 mm 1 mps 594 mmHg 77%
    18:00 -8°C° 0 mm 2 mps 593 mmHg 77%
    19:00 -10°C° 0 mm 2 mps 592 mmHg 77%
    20:00 -10°C° 0 mm 2 mps 592 mmHg 78%
    21:00 -10°C° 0 mm 2 mps 592 mmHg 79%
    22:00 -10°C° 0 mm 2 mps 592 mmHg 80%
    23:00 -10°C° 0 mm 2 mps 592 mmHg 82%

    Day after tomorrow, 20 December, Thursday

    Time Temperature Precipitation Wind Pressure Humidity
    00:00 -10°C° 0 mm 2 mps 592 mmHg 83%
    01:00 -10°C° 0 mm 2 mps 592 mmHg 84%
    02:00 -8°C° 0.2 mm 1 mps 593 mmHg 86%
    03:00 -8°C° 0.2 mm 1 mps 593 mmHg 88%
    04:00 -7°C° 0.2 mm 1 mps 593 mmHg 89%
    05:00 -7°C° 0.3 mm 1 mps 593 mmHg 91%
    06:00 -7°C° 0.3 mm 1 mps 593 mmHg 92%
    07:00 -7°C° 0.3 mm 1 mps 594 mmHg 93%
    08:00 -6°C° 0.3 mm 1 mps 594 mmHg 92%
    09:00 -6°C° 0.3 mm 1 mps 594 mmHg 92%
    10:00 -4°C° 0.3 mm 1 mps 595 mmHg 91%
    11:00 -4°C° 0.3 mm 1 mps 595 mmHg 91%
    12:00 -3°C° 0.3 mm 1 mps 595 mmHg 91%
    13:00 -2°C° 0.3 mm 1 mps 595 mmHg 90%
    14:00 -3°C° 0.2 mm 1 mps 595 mmHg 91%
    15:00 -5°C° 0.2 mm 2 mps 595 mmHg 92%
    16:00 -6°C° 0.2 mm 2 mps 595 mmHg 93%
    17:00 -6°C° 0.2 mm 2 mps 595 mmHg 93%
    18:00 -6°C° 0.2 mm 1 mps 595 mmHg 93%
    19:00 -6°C° 0.2 mm 1 mps 596 mmHg 92%
    20:00 -7°C° 0.1 mm 1 mps 596 mmHg 92%
    21:00 -8°C° 0.1 mm 1 mps 595 mmHg 91%
    22:00 -9°C° 0.1 mm 1 mps 595 mmHg 90%
    23:00 -9°C° 0.1 mm 1 mps 595 mmHg 88%

    21 December, Friday

    Time Temperature Precipitation Wind Pressure Humidity
    00:00 -9°C° 0.1 mm 1 mps 595 mmHg 86%
    01:00 -9°C° 0.1 mm 1 mps 596 mmHg 84%
    02:00 -9°C° 0 mm 1 mps 595 mmHg 82%
    03:00 -10°C° 0 mm 1 mps 595 mmHg 81%
    04:00 -10°C° 0 mm 1 mps 595 mmHg 79%
    05:00 -10°C° 0 mm 1 mps 595 mmHg 78%
    06:00 -12°C° 0 mm 2 mps 595 mmHg 76%
    07:00 -10°C° 0 mm 2 mps 595 mmHg 75%
    08:00 -9°C° 0 mm 2 mps 595 mmHg 75%
    09:00 -8°C° 0 mm 2 mps 596 mmHg 74%
    10:00 -7°C° 0 mm 2 mps 596 mmHg 74%
    11:00 -6°C° 0 mm 2 mps 596 mmHg 75%
    12:00 -6°C° 0 mm 3 mps 596 mmHg 76%
    13:00 -5°C° 0 mm 3 mps 596 mmHg 77%
    14:00 -5°C° 0.1 mm 3 mps 595 mmHg 79%
    15:00 -5°C° 0.1 mm 2 mps 595 mmHg 81%
    16:00 -5°C° 0.1 mm 2 mps 595 mmHg 83%
    17:00 -5°C° 0.3 mm 2 mps 595 mmHg 82%
    18:00 -5°C° 0.3 mm 2 mps 595 mmHg 82%
    19:00 -5°C° 0.3 mm 2 mps 596 mmHg 81%
    20:00 -5°C° 0 mm 2 mps 596 mmHg 81%
    21:00 -5°C° 0 mm 2 mps 596 mmHg 80%
    22:00 -3°C° 0 mm 1 mps 595 mmHg 79%
    23:00 -3°C° 0.2 mm 1 mps 596 mmHg 82%

    22 December, Saturday

    Time Temperature Precipitation Wind Pressure Humidity
    00:00 -2°C° 0.2 mm 1 mps 596 mmHg 84%
    01:00 -1°C° 0.2 mm 1 mps 596 mmHg 86%
    02:00 -2°C° 0.2 mm 1 mps 596 mmHg 87%
    03:00 -2°C° 0.2 mm 1 mps 596 mmHg 88%
    04:00 -2°C° 0.2 mm 1 mps 596 mmHg 89%
    05:00 -2°C° 0 mm 1 mps 596 mmHg 89%
    06:00 -3°C° 0 mm 1 mps 596 mmHg 89%
    07:00 -3°C° 0 mm 1 mps 596 mmHg 89%
    08:00 -2°C° 0.2 mm 1 mps 596 mmHg 89%
    09:00 -1°C° 0.2 mm 1 mps 597 mmHg 89%
    10:00 0°C° 0.2 mm 1 mps 597 mmHg 89%
    11:00 0°C° 0.8 mm 1 mps 597 mmHg 91%
    12:00 0°C° 0.8 mm 1 mps 597 mmHg 93%
    13:00 0°C° 0.8 mm 1 mps 597 mmHg 94%
    14:00 0°C° 0.5 mm 1 mps 596 mmHg 93%
    15:00 0°C° 0.5 mm 1 mps 596 mmHg 92%
    16:00 -1°C° 0.5 mm 1 mps 596 mmHg 91%
    17:00 -1°C° 0.2 mm 1 mps 596 mmHg 90%
    18:00 -1°C° 0.2 mm 1 mps 596 mmHg 89%
    19:00 -1°C° 0.2 mm 1 mps 597 mmHg 88%
    20:00 -1°C° 0.3 mm 1 mps 597 mmHg 88%
    21:00 -1°C° 0.3 mm 1 mps 597 mmHg 89%
    22:00 -1°C° 0.3 mm 1 mps 597 mmHg 89%
    23:00 -3°C° 0.3 mm 2 mps 597 mmHg 90%

    23 December, Sunday

    Time Temperature Precipitation Wind Pressure Humidity
    00:00 -3°C° 0.3 mm 2 mps 597 mmHg 90%
    01:00 -3°C° 0.3 mm 2 mps 597 mmHg 91%
    02:00 -3°C° 0.4 mm 2 mps 598 mmHg 91%
    03:00 -3°C° 0.4 mm 2 mps 598 mmHg 92%
    04:00 -4°C° 0.4 mm 2 mps 598 mmHg 92%
    05:00 -4°C° 0.4 mm 2 mps 598 mmHg 93%
    06:00 -4°C° 0.4 mm 2 mps 598 mmHg 93%
    07:00 -4°C° 0.4 mm 2 mps 599 mmHg 93%
    08:00 -3°C° 0.4 mm 2 mps 599 mmHg 93%
    09:00 -1°C° 0.4 mm 1 mps 599 mmHg 93%
    10:00 0°C° 0.4 mm 1 mps 600 mmHg 94%
    11:00 0°C° 0.7 mm 1 mps 600 mmHg 94%
    12:00 0°C° 0.7 mm 1 mps 600 mmHg 95%
    13:00 0°C° 0.7 mm 1 mps 600 mmHg 96%
    14:00 0°C° 0.5 mm 1 mps 600 mmHg 95%
    15:00 0°C° 0.5 mm 1 mps 600 mmHg 95%
    16:00 -1°C° 0.5 mm 1 mps 600 mmHg 95%
    17:00 -1°C° 0.3 mm 1 mps 600 mmHg 94%
    18:00 -1°C° 0.3 mm 1 mps 600 mmHg 93%
    19:00 -1°C° 0.3 mm 1 mps 600 mmHg 92%
    20:00 -1°C° 0.3 mm 1 mps 601 mmHg 92%
    21:00 -1°C° 0.3 mm 1 mps 601 mmHg 92%
    22:00 -1°C° 0.3 mm 1 mps 601 mmHg 91%
    23:00 -1°C° 0.2 mm 1 mps 601 mmHg 91%
    Show more